Weather observations for the past three days for
Junction, Kimble County Airport
| Date | Time (cdt) | Wind (mph) | Vis. (mi.) | Weather | Sky Cond. | Temperature (ºF) | Relative Humidity | Wind Chill (°F) | Heat Index (°F) | Pressure | Precipitation (in) | ||||||
|---|---|---|---|---|---|---|---|---|---|---|---|---|---|---|---|---|---|
| Air | Dwpt | 6 hour | altimeter (in) | sea level (mb) | 1 hr | 3 hr | 6 hr | ||||||||||
| Max. | Min. | ||||||||||||||||
| 05 | 05:51 | Calm | 10.00 | Fair | CLR | 75 | 70 | 84% | 75 | 29.97 | 1011.0 | ||||||
| 05 | 04:51 | E 3 | 10.00 | Fair | CLR | 75.9 | 69.1 | 79% | 77 | 29.96 | 1010.6 | ||||||
| 05 | 03:51 | SE 3 | 10.00 | Fair | CLR | 75.9 | 69.1 | 79% | 77 | 29.97 | 1010.6 | ||||||
| 05 | 02:51 | Calm | 10.00 | Fair | CLR | 78.1 | 69.1 | 74% | 80 | 29.96 | 1010.5 | ||||||
| 05 | 01:51 | Vrbl 3 | 10.00 | Fair | CLR | 79 | 69.1 | 72% | 82 | 29.97 | 1010.9 | ||||||
| 05 | 00:51 | NE 5 | 10.00 | Fair | CLR | 79 | 68 | 90 | 78.1 | 69% | 81 | 29.97 | 1010.9 | ||||
| 04 | 23:51 | NE 3 | 10.00 | Fair | CLR | 79 | 68 | 69% | 81 | 29.97 | 1011.0 | ||||||
| 04 | 22:51 | NE 3 | 10.00 | Fair | CLR | 80.1 | 68 | 67% | 83 | 29.97 | 1011.0 | ||||||
| 04 | 21:51 | NE 5 | 10.00 | A Few Clouds | FEW120 | 78.1 | 70 | 76% | 80 | 29.95 | 1010.6 | ||||||
| 04 | 20:51 | Calm | 10.00 | A Few Clouds | FEW120 | 80.1 | 71.1 | 74% | 84 | 29.94 | 1010.0 | ||||||
| 04 | 19:51 | NW 5 | 10.00 | Fair | CLR | 86 | 68 | 55% | 89 | 29.94 | 1010.0 | ||||||
| 04 | 18:51 | SE 8 | 10.00 | Mostly Cloudy | BKN100 | 90 | 69.1 | 96.1 | 90 | 50% | 95 | 29.93 | 1009.6 | ||||
| 04 | 17:51 | SE 15 G 23 | 10.00 | Fair | CLR | 93 | 69.1 | 46% | 98 | 29.91 | 1008.7 | ||||||
| 04 | 16:51 | SE 14 G 24 | 10.00 | Partly Cloudy | SCT065 | 96.1 | 72 | 46% | 105 | 29.91 | 1008.5 | ||||||
| 04 | 15:51 | SE 15 G 22 | 10.00 | Fair | CLR | 93.9 | 72 | 49% | 102 | 29.92 | 1009.0 | ||||||
| 04 | 14:51 | SE 13 G 21 | 10.00 | Fair | CLR | 93.9 | 73 | 51% | 103 | 29.94 | 1009.8 | ||||||
| 04 | 13:51 | S 6 G 21 | 10.00 | Fair | CLR | 91 | 72 | 54% | 99 | 29.96 | 1010.4 | ||||||
| 04 | 12:51 | E 10 | 10.00 | Fair | CLR | 91 | 73 | 91 | 75 | 56% | 100 | 29.98 | 1011.1 | ||||
| 04 | 11:51 | SE 7 | 10.00 | Fair | CLR | 88 | 73 | 61% | 96 | 30 | 1011.7 | ||||||
| 04 | 10:51 | S 10 | 10.00 | A Few Clouds | FEW025 | 84.9 | 73 | 68% | 92 | 30 | 1011.8 | ||||||
| 04 | 09:51 | SE 7 | 10.00 | A Few Clouds | FEW020 | 80.1 | 73 | 79% | 84 | 30 | 1012.0 | ||||||
| 04 | 08:51 | SE 6 | 10.00 | Fair | CLR | 79 | 73 | 82% | 82 | 29.99 | 1011.5 | ||||||
| 04 | 07:51 | E 3 | 10.00 | Fair | CLR | 75.9 | 73 | 91% | 76 | 29.96 | 1010.5 | ||||||
| 04 | 06:51 | SW 3 | 10.00 | Partly Cloudy | SCT110 | 75.9 | 72 | 82.9 | 75.9 | 88% | 76 | 29.95 | 1010.2 | ||||
| 04 | 05:51 | Calm | 10.00 | Mostly Cloudy | FEW018 BKN110 | 75.9 | 72 | 88% | 76 | 29.95 | 1009.9 | ||||||
| 04 | 04:51 | S 6 | 10.00 | Fair | CLR | 77 | 71.1 | 82% | 79 | 29.94 | 1009.4 | ||||||
| 04 | 03:51 | Vrbl 3 | 10.00 | Fair | CLR | 78.1 | 69.1 | 74% | 80 | 29.94 | 1009.6 | ||||||
| 04 | 02:51 | S 10 | 10.00 | Fair | CLR | 80.1 | 66.9 | 64% | 82 | 29.94 | 1009.6 | ||||||
| 04 | 01:51 | S 13 | 10.00 | Fair | CLR | 82 | 69.1 | 65% | 85 | 29.94 | 1009.3 | ||||||
| 04 | 00:51 | S 9 | 10.00 | Fair | CLR | 82.9 | 70 | 95 | 82.9 | 65% | 87 | 29.93 | 1009.3 | ||||
| 03 | 23:51 | S 13 G 20 | 10.00 | Fair | CLR | 84.9 | 70 | 61% | 89 | 29.92 | 1009.0 | ||||||
| 03 | 22:51 | Vrbl 5 | 10.00 | Fair | CLR | 86 | 66.9 | 53% | 89 | 29.92 | 1009.1 | ||||||
| 03 | 21:51 | Calm | 10.00 | Fair | CLR | 84 | 66 | 55% | 86 | 29.9 | 1008.4 | ||||||
| 03 | 20:51 | E 8 | 10.00 | Fair | CLR | 86 | 66 | 51% | 88 | 29.88 | 1007.8 | ||||||
| 03 | 19:51 | S 9 | 10.00 | Fair | CLR | 91 | 66 | 44% | 94 | 29.86 | 1007.3 | ||||||
| 03 | 18:51 | S 12 | 10.00 | A Few Clouds | FEW110 | 95 | 66 | 104 | 93.9 | 39% | 98 | 29.86 | 1007.0 | ||||
| 03 | 17:51 | SE 13 | 10.00 | A Few Clouds | FEW090 | 99 | 64 | 32% | 102 | 29.85 | 1006.4 | ||||||
| 03 | 16:51 | E 8 | 10.00 | A Few Clouds | FEW110 | 104 | 63 | 26% | 107 | 29.83 | 1005.9 | ||||||
| 03 | 15:51 | S 12 | 10.00 | Fair | CLR | 102 | 64 | 29% | 105 | 29.85 | 1006.5 | ||||||
| 03 | 14:51 | Vrbl 6 | 10.00 | Fair | CLR | 100 | 64.9 | 32% | 103 | 29.88 | 1007.5 | ||||||
| 03 | 13:51 | Vrbl 7 | 10.00 | Fair | CLR | 100 | 64.9 | 32% | 103 | 29.91 | 1008.5 | ||||||
| 03 | 12:51 | Calm | 10.00 | Fair | CLR | 98.1 | 68 | 98.1 | 71.1 | 38% | 103 | 29.94 | 1009.7 | ||||
| 03 | 11:51 | S 9 | 10.00 | Fair | CLR | 95 | 71.1 | 46% | 102 | 29.96 | 1010.4 | ||||||
| 03 | 10:51 | Vrbl 6 | 10.00 | Fair | CLR | 90 | 72 | 56% | 97 | 29.97 | 1010.7 | ||||||
| 03 | 09:51 | SW 6 | 10.00 | Fair | CLR | 84.9 | 73 | 68% | 92 | 29.98 | 1010.9 | ||||||
| 03 | 08:51 | Vrbl 3 | 10.00 | Fair | CLR | 80.1 | 73.9 | 82% | 85 | 29.98 | 1011.2 | ||||||
| 03 | 07:51 | Calm | 10.00 | Fair | CLR | 72 | 72 | 100% | 29.97 | 1011.0 | |||||||
| 03 | 06:51 | Calm | 10.00 | Fair | CLR | 72 | 71.1 | 82.9 | 72 | 97% | 29.96 | 1010.4 | |||||
| 03 | 05:51 | Calm | 10.00 | Fair | CLR | 77 | 72 | 85% | 78 | 29.95 | 1010.0 | ||||||
| 03 | 04:51 | S 5 | 10.00 | Fair | CLR | 79 | 72 | 79% | 82 | 29.94 | 1009.7 | ||||||
| 03 | 03:51 | S 8 | 10.00 | Fair | CLR | 80.1 | 70 | 71% | 83 | 29.94 | 1009.6 | ||||||
| 03 | 02:51 | S 6 | 10.00 | Fair | CLR | 80.1 | 66.9 | 64% | 82 | 29.95 | 1009.9 | ||||||
| 03 | 01:51 | SW 8 | 10.00 | Fair | CLR | 82.9 | 63 | 51% | 84 | 29.96 | 1010.3 | ||||||
| 03 | 00:51 | Calm | 10.00 | Fair | CLR | 82 | 63 | 100 | 80.1 | 53% | 83 | 29.96 | 1010.1 | ||||
| 02 | 23:51 | Calm | 10.00 | Fair | CLR | 82 | 64 | 55% | 84 | 29.96 | 1010.2 | ||||||
| 02 | 22:51 | E 7 | 10.00 | Fair | CLR | 82 | 63 | 53% | 83 | 29.95 | 1010.3 | ||||||
| 02 | 21:51 | E 6 | 10.00 | Fair | CLR | 84.9 | 63 | 48% | 86 | 29.94 | 1009.6 | ||||||
| 02 | 20:51 | E 3 | 10.00 | Fair | CLR | 89.1 | 62.1 | 41% | 89 | 29.91 | 1008.7 | ||||||
| 02 | 19:51 | SE 7 | 10.00 | Fair | CLR | 93 | 61 | 34% | 93 | 29.89 | 1008.2 | ||||||
| 02 | 18:51 | E 3 | 10.00 | Fair | CLR | 100 | 57.9 | 104 | 97 | 25% | 100 | 29.89 | 1008.1 | ||||
| 02 | 17:51 | Calm | 10.00 | Fair | CLR | 100.9 | 57 | 23% | 100 | 29.9 | 1008.1 | ||||||
| 02 | 16:51 | S 7 | 10.00 | Fair | CLR | 100.9 | 57.9 | 24% | 101 | 29.91 | 1008.4 | ||||||
| 02 | 15:51 | S 6 | 10.00 | Fair | CLR | 102 | 60.1 | 25% | 103 | 29.93 | 1009.2 | ||||||
| 02 | 14:51 | SW 7 | 10.00 | Fair | CLR | 99 | 60.1 | 28% | 99 | 29.96 | 1010.2 | ||||||
| 02 | 13:51 | Calm | 10.00 | Fair | CLR | 98.1 | 61 | 29% | 99 | 29.98 | 1011.1 | ||||||
| 02 | 12:51 | Vrbl 3 | 10.00 | Fair | CLR | 98.1 | 64 | 98.1 | 70 | 33% | 101 | 30.01 | 1012.2 | ||||
| 02 | 11:51 | Calm | 10.00 | Fair | CLR | 93 | 66 | 41% | 96 | 30.04 | 1013.0 | ||||||
| 02 | 10:51 | S 8 | 10.00 | Fair | CLR | 90 | 68 | 48% | 94 | 30.05 | 1013.4 | ||||||
| 02 | 09:51 | SW 6 | 10.00 | Fair | CLR | 86 | 69.1 | 57% | 90 | 30.05 | 1013.7 | ||||||
| 02 | 08:51 | Calm | 10.00 | Fair | CLR | 78.1 | 69.1 | 74% | 80 | 30.06 | 1013.9 | ||||||
| 02 | 06:51 | Calm | 10.00 | A Few Clouds | FEW100 | 73 | 66.9 | 79 | 72 | 81% | 30.03 | 1012.9 | |||||
| Date | Time (cdt) | Wind (mph) | Vis. (mi.) | Weather | Sky Cond. | Air | Dwpt | Max. | Min. | Relative Humidity | Wind Chill (°F) | Heat Index (°F) | altimeter (in) | sea level (mb) | 1 hr | 3 hr | 6 hr |
| 6 hour | |||||||||||||||||
| Temperature (ºF) | Pressure | Precipitation (in) | |||||||||||||||